X-CUBESAT (42707 NORAD) Tracking and Keplerian Element Data

This shows tracking and keplerian element data for the satellite.

Feedback or suggestion? Click here.




ElementValue
Catalog42707
NameX-CUBESAT
Epoch Orbit8531
Epoch Day316.40514902
Epoch Year2018
RAAN309.7808
Inclination51.6291
Eccentricity0.0004943
Argument of Perigee59.2707
Mean Anonmoly300.8783
Mean Motion15.85304779
Decay Rate0.0009166
L11 42707U 98067LQ 18316.40514902 .00091660 00000-0 37496-3 0 9998
L22 42707 51.6291 309.7808 0004943 59.2707 300.8783 15.85304779 85316

Live tracking and technical data element details for X-CUBESAT (NORAD 42707). X-CUBESAT can be tracked NOW for your location showing map with azimuth and elevation plus other details from your city location.

Track the satellite on the map from your city or location and see movement details for azimuth, elevation, latitude, longitude, range, height, and movement on the map or in text.







IsCatalogInMostPopularTable: catalog: 42707, numindb: 189
Update: records affected: 1



GetName: 42707 X-CUBESAT

Hit Count: updated at: Tue, 13 Nov 2018 22:18:25 GMT